sat.trackr.live / text

‹ back to catalog

STARLINK-5512

NORAD 57256 · 2023-094AQ

PAYLOAD ACTIVE UNKNOWN

§ Identity

Operator
Country
US
Launch date
2023-07-07
Launch site
AFWTR
Launch vehicle
Mass (kg)
RCS (m²)

Purposes: comms

External: N2YO · Heavens-Above · Gunter

§ Orbital elements

Epoch: 2026-05-25T03:38:18.213216Z

Period
94.27 min
Inclination
43.0034°
Eccentricity
0.0001287
Mean motion
15.27567822 rev/d
Perigee alt
482.2 km
Apogee alt
484.0 km
Semi-major
6,861.2 km
B*
1.6640e-4
RAAN
308.0973°
Arg perigee
277.5369°
Mean anomaly
82.5337°
Rev number
15,893

§ Raw data

STARLINK-55121 57256U 23094AQ  26145.15159969  .00004318  00000+0  16640-3 0  99912 57256  43.0034 308.0973 0001287 277.5369  82.5337 15.27567822158937

JSON: /api/v1/satellites/57256 · /tle

For live sub-satellite position, see the globe view (requires WebGL).

§ Visibility from observer

Set your observer location to see the next 7 days of passes ≥ 10°. The values pass through the URL so the page stays shareable.

No JS? Fill the form by hand. The geolocation button needs JavaScript.